TimeCDT,TemperatureF,Dew PointF,Humidity,Sea Level PressureIn,VisibilityMPH,Wind Direction,Wind SpeedMPH,Gust SpeedMPH,PrecipitationIn,Events,Conditions,WindDirDegrees,DateUTC
12:13 AM,60.8,51.8,72,29.97,10.0,SSW,3.5,-,N/A,,Clear,200,2014-06-10 05:13:00
12:34 AM,60.8,53.6,77,29.98,10.0,SSW,3.5,-,N/A,,Clear,200,2014-06-10 05:34:00
12:54 AM,59.0,53.6,82,29.98,10.0,SSW,3.5,-,N/A,,Clear,210,2014-06-10 05:54:00
1:14 AM,59.0,53.6,82,29.98,10.0,Calm,Calm,-,N/A,,Clear,0,2014-06-10 06:14:00
1:33 AM,57.2,51.8,82,29.97,10.0,Calm,Calm,-,N/A,,Clear,0,2014-06-10 06:33:00
1:54 AM,57.2,53.6,88,29.97,10.0,SSW,3.5,-,N/A,,Clear,200,2014-06-10 06:54:00
2:13 AM,57.2,53.6,88,29.97,10.0,Calm,Calm,-,N/A,,Clear,0,2014-06-10 07:13:00
2:34 AM,55.4,51.8,88,29.96,10.0,Calm,Calm,-,N/A,,Clear,0,2014-06-10 07:34:00
2:54 AM,55.4,51.8,88,29.96,10.0,Calm,Calm,-,N/A,,Clear,0,2014-06-10 07:54:00
3:13 AM,53.6,48.2,82,29.96,10.0,Calm,Calm,-,N/A,,Clear,0,2014-06-10 08:13:00
3:34 AM,53.6,51.8,94,29.96,10.0,Calm,Calm,-,N/A,,Clear,0,2014-06-10 08:34:00
3:54 AM,53.6,50.0,88,29.95,10.0,Calm,Calm,-,N/A,,Clear,0,2014-06-10 08:54:00
4:13 AM,51.8,48.2,88,29.95,10.0,Calm,Calm,-,N/A,,Clear,0,2014-06-10 09:13:00
4:34 AM,51.8,51.8,100,29.95,10.0,Calm,Calm,-,N/A,,Clear,0,2014-06-10 09:34:00
4:54 AM,51.8,51.8,100,29.95,10.0,Calm,Calm,-,N/A,,Clear,0,2014-06-10 09:54:00
5:13 AM,51.8,51.8,100,29.96,10.0,Calm,Calm,-,N/A,,Clear,0,2014-06-10 10:13:00
5:34 AM,51.8,50.0,94,29.96,10.0,Calm,Calm,-,N/A,,Clear,0,2014-06-10 10:34:00
5:54 AM,51.8,50.0,94,29.96,10.0,Calm,Calm,-,N/A,,Clear,0,2014-06-10 10:54:00
6:13 AM,53.6,53.6,100,29.96,10.0,SSE,4.6,-,N/A,,Clear,160,2014-06-10 11:13:00
6:34 AM,55.4,53.6,94,29.96,10.0,SSE,3.5,-,N/A,,Clear,160,2014-06-10 11:34:00
6:54 AM,57.2,55.4,94,29.96,10.0,Calm,Calm,-,N/A,,Clear,0,2014-06-10 11:54:00
7:14 AM,59.0,57.2,94,29.96,10.0,Calm,Calm,-,N/A,,Scattered Clouds,0,2014-06-10 12:14:00
7:34 AM,59.0,55.4,88,29.96,10.0,SE,3.5,-,N/A,,Mostly Cloudy,140,2014-06-10 12:34:00
7:54 AM,60.8,55.4,82,29.97,10.0,SE,3.5,-,N/A,,Overcast,140,2014-06-10 12:54:00
8:14 AM,62.6,55.4,77,29.97,10.0,Calm,Calm,-,N/A,,Overcast,0,2014-06-10 13:14:00
8:54 AM,64.4,55.4,73,29.97,10.0,Calm,Calm,-,N/A,,Overcast,0,2014-06-10 13:54:00
9:14 AM,66.2,55.4,68,29.97,10.0,Calm,Calm,-,N/A,,Overcast,0,2014-06-10 14:14:00
9:34 AM,66.2,55.4,68,29.96,10.0,Calm,Calm,-,N/A,,Overcast,0,2014-06-10 14:34:00
10:14 AM,68.0,55.4,64,29.96,10.0,Calm,Calm,-,N/A,,Overcast,0,2014-06-10 15:14:00
10:34 AM,69.8,55.4,60,29.96,10.0,South,3.5,-,N/A,,Overcast,170,2014-06-10 15:34:00
10:54 AM,69.8,55.4,60,29.95,10.0,South,5.8,-,N/A,,Overcast,180,2014-06-10 15:54:00
11:14 AM,71.6,55.4,57,29.95,10.0,South,6.9,-,N/A,,Overcast,170,2014-06-10 16:14:00
11:34 AM,71.6,53.6,53,29.95,-9999.0,South,4.6,-,N/A,,Unknown,180,2014-06-10 16:34:00
12:13 PM,73.4,55.4,53,29.93,10.0,South,4.6,-,N/A,,Overcast,190,2014-06-10 17:13:00
12:34 PM,75.2,51.8,44,29.93,10.0,SSW,6.9,-,N/A,,Scattered Clouds,200,2014-06-10 17:34:00
12:54 PM,77.0,51.8,41,29.92,10.0,SSW,9.2,-,N/A,,Clear,200,2014-06-10 17:54:00
1:14 PM,77.0,51.8,41,29.91,10.0,South,8.1,-,N/A,,Clear,180,2014-06-10 18:14:00
1:33 PM,77.0,51.8,41,29.91,10.0,SSW,5.8,-,N/A,,Clear,200,2014-06-10 18:33:00
2:14 PM,77.0,51.8,41,29.91,10.0,SSW,8.1,-,N/A,,Scattered Clouds,210,2014-06-10 19:14:00
2:34 PM,78.8,51.8,39,29.90,10.0,South,5.8,-,N/A,,Mostly Cloudy,190,2014-06-10 19:34:00
2:54 PM,78.8,51.8,39,29.90,10.0,SW,3.5,-,N/A,,Mostly Cloudy,220,2014-06-10 19:54:00
3:14 PM,77.0,51.8,41,29.90,10.0,Calm,Calm,-,N/A,,Mostly Cloudy,0,2014-06-10 20:14:00
3:34 PM,75.2,51.8,44,29.90,10.0,WSW,3.5,-,N/A,,Overcast,250,2014-06-10 20:34:00
4:13 PM,75.2,51.8,44,29.89,10.0,Calm,Calm,-,N/A,,Overcast,0,2014-06-10 21:13:00
4:34 PM,77.0,53.6,44,29.89,10.0,Calm,Calm,-,N/A,,Overcast,0,2014-06-10 21:34:00
4:54 PM,78.8,53.6,42,29.89,10.0,Calm,Calm,-,N/A,,Overcast,0,2014-06-10 21:54:00
5:14 PM,78.8,51.8,39,29.88,10.0,NNE,3.5,-,N/A,,Mostly Cloudy,30,2014-06-10 22:14:00
5:34 PM,80.6,51.8,37,29.88,10.0,Calm,Calm,-,N/A,,Mostly Cloudy,0,2014-06-10 22:34:00
5:54 PM,80.6,51.8,37,29.87,10.0,Calm,Calm,-,N/A,,Overcast,0,2014-06-10 22:54:00
6:14 PM,78.8,53.6,42,29.87,10.0,SE,6.9,-,N/A,,Mostly Cloudy,130,2014-06-10 23:14:00
6:34 PM,78.8,53.6,42,29.87,10.0,SSE,8.1,-,N/A,,Scattered Clouds,160,2014-06-10 23:34:00
6:54 PM,78.8,53.6,42,29.86,10.0,South,6.9,-,N/A,,Clear,190,2014-06-10 23:54:00
7:13 PM,78.8,53.6,42,29.86,10.0,SSE,8.1,-,N/A,,Clear,160,2014-06-11 00:13:00
7:34 PM,77.0,53.6,44,29.86,10.0,SSE,8.1,-,N/A,,Clear,160,2014-06-11 00:34:00
7:53 PM,77.0,53.6,44,29.86,10.0,SSE,5.8,-,N/A,,Clear,160,2014-06-11 00:53:00
8:14 PM,75.2,55.4,50,29.85,10.0,SE,8.1,-,N/A,,Clear,140,2014-06-11 01:14:00
8:34 PM,73.4,55.4,53,29.85,10.0,SE,5.8,-,N/A,,Clear,140,2014-06-11 01:34:00
8:53 PM,71.6,55.4,57,29.85,10.0,SSE,5.8,-,N/A,,Clear,150,2014-06-11 01:53:00
9:14 PM,69.8,55.4,60,29.84,10.0,SSE,6.9,-,N/A,,Clear,150,2014-06-11 02:14:00
9:34 PM,69.8,57.2,64,29.84,10.0,SSE,6.9,-,N/A,,Clear,150,2014-06-11 02:34:00
10:14 PM,66.2,57.2,73,29.84,10.0,SSE,9.2,-,N/A,,Clear,160,2014-06-11 03:14:00
10:34 PM,66.2,57.2,73,29.84,10.0,SSE,5.8,-,N/A,,Clear,160,2014-06-11 03:34:00
10:54 PM,66.2,57.2,73,29.84,10.0,SSE,6.9,-,N/A,,Clear,150,2014-06-11 03:54:00
11:14 PM,64.4,57.2,77,29.83,10.0,SSE,9.2,-,N/A,,Clear,160,2014-06-11 04:14:00
11:34 PM,66.2,57.2,73,29.84,10.0,SSE,10.4,-,N/A,,Clear,160,2014-06-11 04:34:00
11:54 PM,66.2,55.4,68,29.83,10.0,SSE,9.2,-,N/A,,Clear,160,2014-06-11 04:54:00